User: anonymous   Login
Location: Albany
(35.0000°S, 118.0000°E)
Time: 19:29:41
(UTC-05:00)
Language:

JAS-1B - Orbit

View from above orbital plane
View from above orbital plane
View from above satellite
View from above satellite

Ground track
Ground track

The orbit data is extracted from the following two-line orbital elements,

1 20480U 90013C   16042.59346704 -.00000022  00000-0  16466-4 0  9990
2 20480  99.0353 262.8399 0540916  65.2984 349.5211 12.83409422218666
Epoch (UTC): 11 February 2016 14:14:35
Eccentricity: 0.0540916
inclination: 99.0353°
perigee height: 911 km
apogee height: 1744 km
right ascension of ascending node: 262.8399°
argument of perigee: 65.2984°
revolutions per day: 12.83409422
mean anomaly at epoch: 349.5211°
orbit number at epoch: 21866

The dashed part of the orbit path shows where the satellite is in the earth's shadow,  

DLR